Location: ????????
(37.6846°N, 24.0673°E)
Time: 14:17:05
(UTC+00:00)

Cosmos 2360 - Pass Details

Date: 14 July 2020
Orbit: 844 x 858 km, 70.8° (Epoch: 03 August)

Event Time Altitude Azimuth Distance (km) Brightness Sun altitude
Rises 00:54:39 0° 338° (NNW) 3,438 7.8 -21.6°
Reaches altitude 10° 00:57:07 10° 340° (NNW) 2,498 7.1 -21.3°
Maximum altitude 01:02:53 78° 67° (ENE) 879 4.3 -20.6°
Drops below altitude 10° 01:08:35 10° 154° (SSE) 2,480 6.4 -19.9°
Enters shadow 01:09:38 - 155° (SSE) 2,878 6.7 -19.8°
